Hettinger, ND

4:43 AM MDT on May 30, 2017 (GMT -0600)
Hettinger Municipal

Weather History for KHEI - December, 2013

Change the Weather History Date:

Monday, December 2, 2013

  Actual Average Record
Temperature  
Mean Temperature 32 °F -  
Max Temperature 45 °F 33 °F 55 °F (2012)
Min Temperature 19 °F 10 °F -9 °F (2006)
Degree Days  
Heating Degree Days 33 43  
Month to date heating degree days 59 86  
Since 1 July heating degree days 2083 2216  
Moisture  
Dew Point 27 °F    
Average Humidity 89    
Maximum Humidity 100    
Minimum Humidity 70    
Precipitation  
Precipitation T in 0.01 in 0.01 in (2000)
Month to date precipitation 0.02 0.01  
Year to date precipitation 24.75 15.80  
Sea Level Pressure  
Sea Level Pressure 29.60 in    
Wind  
Wind Speed 12 mph (NNE)    
Max Wind Speed 23 mph    
Max Gust Speed 28 mph    
Visibility 6 miles    
Events Fog , Snow    
T = Trace of Precipitation, MM = Missing Value Source: NWS Daily Summary

Daily Weather History Graph

Daily Weather History Graph

Search for Another Location

Airport or City:

Trip Planner

Search our weather history database for the weather conditions in past years. The results will help you decide how hot, cold, wet, or windy it might be!

Date:

Astronomy

Dec. 02, 2013 Rise Set
Actual Time 7:13 AM MST 4:06 PM MST
Civil Twilight 6:39 AM MST 4:40 PM MST
Nautical Twilight 6:02 AM MST 5:17 PM MST
Astronomical Twilight 5:26 AM MST 5:54 PM MST
Moon 6:39 AM MST (12/2) 4:13 PM MST (12/2)
Length of Visible Light 10h 00m
Length of Day
8h 52m
Waning Crescent, 0% of the Moon is Illuminated
Dec 2
Waning Crescent
Dec 2
New
Dec 9
First Quarter
Dec 17
Full
Dec 25
Last Quarter

Hourly Weather History & Observations

Time (MST) Temp. Windchill Dew Point Humidity Pressure Visibility Wind Dir Wind Speed Gust Speed Precip Events Conditions
12:53 AM 37.9 °F 34.4 °F 35.1 °F 89% 29.60 in 10.0 mi SW 4.6 mph - 0.01 in   Overcast
1:53 AM 34.0 °F 31.0 °F 32.0 °F 92% 29.59 in 10.0 mi West 3.5 mph - N/A   Scattered Clouds
2:53 AM 37.0 °F - 33.1 °F 86% 29.56 in 10.0 mi Calm Calm - N/A   Mostly Cloudy
3:53 AM 33.1 °F 30.0 °F 30.0 °F 89% 29.56 in 10.0 mi WNW 3.5 mph - N/A   Clear
4:53 AM 30.9 °F - 28.0 °F 89% 29.54 in 10.0 mi Calm Calm - N/A   Clear
5:53 AM 34.0 °F 25.0 °F 30.0 °F 85% 29.55 in 10.0 mi West 12.7 mph - N/A   Clear
6:53 AM 34.0 °F 27.2 °F 30.9 °F 89% 29.55 in 10.0 mi WNW 8.1 mph - N/A   Clear
7:53 AM 34.0 °F 28.8 °F 30.9 °F 89% 29.56 in 10.0 mi West 5.8 mph - N/A   Clear
8:53 AM 37.0 °F 31.0 °F 34.0 °F 89% 29.55 in 10.0 mi WNW 8.1 mph - N/A   Clear
9:53 AM 42.1 °F 34.9 °F 35.1 °F 76% 29.56 in 10.0 mi WNW 13.8 mph - N/A   Clear
10:53 AM 43.0 °F 36.0 °F 34.0 °F 71% 29.55 in 10.0 mi NW 13.8 mph - N/A   Clear
11:53 AM 43.0 °F 36.8 °F 36.0 °F 76% 29.55 in 10.0 mi NNW 11.5 mph - N/A   Clear
12:35 PM 42.8 °F 35.1 °F 33.8 °F 70% 29.49 in 10.0 mi NNW 16.1 mph - N/A   Mostly Cloudy
12:53 PM 42.1 °F 35.7 °F 35.1 °F 76% 29.54 in 10.0 mi North 11.5 mph - N/A   Scattered Clouds
1:22 PM 41.0 °F 33.1 °F 33.8 °F 76% 29.52 in 10.0 mi North 15.0 mph - N/A   Mostly Cloudy
1:53 PM 41.0 °F 33.5 °F 34.0 °F 76% 29.56 in 10.0 mi North 13.8 mph - N/A   Mostly Cloudy
2:03 PM 41.0 °F 33.5 °F 33.8 °F 76% 29.51 in 10.0 mi NNW 13.8 mph - N/A   Scattered Clouds
2:29 PM 37.4 °F 29.3 °F 33.8 °F 87% 29.52 in 10.0 mi NNE 12.7 mph - N/A   Mostly Cloudy
2:45 PM 35.6 °F 27.5 °F 33.8 °F 93% 29.53 in 10.0 mi NNE 11.5 mph - N/A   Overcast
2:53 PM 36.0 °F 28.5 °F 32.0 °F 86% 29.59 in 10.0 mi NE 10.4 mph - N/A   Overcast
3:24 PM 32.0 °F 22.5 °F 30.2 °F 93% 29.55 in 2.5 mi NE 12.7 mph - N/A   Overcast
3:36 PM 30.2 °F 20.2 °F 30.2 °F 100% 29.55 in 1.0 mi NE 12.7 mph - N/A   Overcast
3:45 PM 30.2 °F 18.9 °F 28.4 °F 93% 29.54 in 0.8 mi NE 16.1 mph - N/A   Overcast
3:53 PM 30.0 °F 17.2 °F 28.9 °F 96% 29.61 in 0.5 mi NE 20.7 mph - N/A Fog Light Freezing Fog
4:04 PM 28.4 °F 15.8 °F 28.4 °F 100% 29.56 in 0.2 mi NE 18.4 mph - N/A Fog Light Freezing Fog
4:16 PM 28.4 °F 16.6 °F 26.6 °F 93% 29.56 in 0.5 mi NE 16.1 mph - N/A Fog Light Freezing Fog
4:29 PM 28.4 °F 14.7 °F 26.6 °F 93% 29.56 in 1.0 mi NE 21.9 mph 25.3 mph N/A   Overcast
4:53 PM 27.0 °F 14.3 °F 26.1 °F 96% 29.65 in 1.0 mi ENE 17.3 mph - N/A   Mist
5:09 PM 26.6 °F 13.4 °F 24.8 °F 93% 29.58 in 0.8 mi NE 18.4 mph - N/A   Mist
5:16 PM 26.6 °F 13.1 °F 24.8 °F 93% 29.59 in 1.2 mi NE 19.6 mph - N/A   Overcast
5:53 PM 25.0 °F 12.2 °F 24.1 °F 96% 29.68 in 1.5 mi NE 16.1 mph - N/A   Overcast
6:04 PM 24.8 °F 11.9 °F 23.0 °F 93% 29.60 in 3.0 mi NE 16.1 mph - N/A   Overcast
6:14 PM 24.8 °F 13.4 °F 23.0 °F 93% 29.60 in 2.0 mi NE 12.7 mph - N/A   Overcast
6:35 PM 24.8 °F 11.5 °F 21.2 °F 86% 29.60 in 3.0 mi NE 17.3 mph - N/A   Overcast
6:44 PM 24.8 °F 11.1 °F 21.2 °F 86% 29.61 in 2.5 mi NE 18.4 mph - N/A   Overcast
6:53 PM 23.0 °F 8.7 °F 21.9 °F 96% 29.70 in 2.5 mi NE 18.4 mph 23.0 mph N/A   Overcast
7:00 PM 23.0 °F 9.2 °F 21.2 °F 93% 29.62 in 4.0 mi NE 17.3 mph - N/A   Overcast
7:17 PM 23.0 °F 9.6 °F 21.2 °F 93% 29.62 in 2.5 mi NE 16.1 mph - N/A   Overcast
7:25 PM 23.0 °F 8.7 °F 21.2 °F 93% 29.62 in 3.0 mi NE 18.4 mph - N/A   Overcast
7:35 PM 21.2 °F 7.3 °F 19.4 °F 93% 29.62 in 2.0 mi NE 16.1 mph - 0.00 in Snow Light Snow
7:53 PM 21.0 °F 6.2 °F 19.9 °F 96% 29.72 in 4.0 mi NE 18.4 mph - 0.00 in   Overcast
8:35 PM 19.4 °F 4.5 °F 19.4 °F 100% 29.65 in 2.5 mi NE 17.3 mph - N/A   Overcast
8:46 PM 19.4 °F 3.6 °F 17.6 °F 93% 29.64 in 4.0 mi NE 19.6 mph 24.2 mph N/A   Overcast
8:53 PM 19.9 °F 4.3 °F 18.0 °F 92% 29.73 in 8.0 mi NE 19.6 mph 24.2 mph N/A   Overcast
9:53 PM 19.0 °F 4.5 °F 17.1 °F 92% 29.73 in 7.0 mi NE 16.1 mph - 0.00 in   Overcast
10:53 PM 19.0 °F 3.2 °F 16.0 °F 88% 29.76 in 9.0 mi NE 19.6 mph 24.2 mph N/A   Overcast
11:53 PM 19.0 °F 4.5 °F 16.0 °F 88% 29.76 in 8.0 mi NE 16.1 mph - N/A   Overcast